Location: Atlantic Beach
(40.5890°N, 73.7290°W)
Time: 05:54:45
(UTC+00:00)

N. Korean satellite - Pass Details

Date: 23 January 2021
Orbit: 451 x 502 km, 97.2° (Epoch: 06 March)

Event Time Altitude Azimuth Distance (km) Brightness Sun altitude
Rises 22:28:24 0° 203° (SSW) 2,585 11.0 -5.4°
Reaches altitude 10° 22:31:02 10° 224° (SW) 1,702 10.5 -5.9°
Maximum altitude 22:33:31 17° 266° (W) 1,315 10.0 -6.3°
Drops below altitude 10° 22:35:59 10° 309° (NW) 1,699 9.8 -6.8°
Sets 22:38:38 0° 330° (NNW) 2,578 10.4 -7.2°
